,

(GMT )
Karlstad

Weather History for ESSQ - July, 2013

Change the Weather History Date:

Wednesday, July 17, 2013

  Actual Average Record
Temperature  
Mean Temperature 66 °F -  
Max Temperature 80 °F - - ()
Min Temperature 51 °F - - ()
Growing Degree Days 16 (Base 50)    
Moisture  
Dew Point 53 °F    
Average Humidity 54    
Maximum Humidity 92    
Minimum Humidity 26    
Precipitation  
Precipitation 0.00 in - - ()
Sea Level Pressure  
Sea Level Pressure 30.02 in    
Wind  
Wind Speed 3 mph ()    
Max Wind Speed 9 mph    
Max Gust Speed -    
T = Trace of Precipitation, MM = Missing Value Source: Averaged Metar Reports

Daily Weather History Graph

Daily Weather History Graph

Search for Another Location

Airport or City:

Trip Planner

Search our weather history database for the weather conditions in past years. The results will help you decide how hot, cold, wet, or windy it might be!

Date:

Astronomy

Jul. 17, 2013 Rise Set
Actual Time 4:19 AM CEST 10:05 PM CEST
Civil Twilight 3:07 AM CEST 11:15 PM CEST
Nautical Twilight 1:45 AM CEST 12:40 AM CEST
Astronomical Twilight Sun does not rise Sun does not rise
Moon 4:06 PM CEST No Moon Set
Length of Visible Light 20h 08m
Length of Day
17h 46m
Waxing Gibbous, 64% of the Moon is Illuminated
Jul 17
Waxing Gibbous
Jul 22
Full
Jul 29
Last Quarter
Aug 6
New
Aug 14
First Quarter

Hourly Weather History & Observations

Time (CEST) Temp. Dew Point Humidity Pressure Visibility Wind Dir Wind Speed Gust Speed Precip Events Conditions
12:00 AM 62 °F 52 °F 61% 29.99 in 31 mi WNW 2.2 mph - -   Overcast
1:00 AM 60 °F 54 °F 73% 30.00 in 31 mi SW 2.2 mph - -   Overcast
2:00 AM 58 °F 54 °F 80% 30.00 in 31 mi SW 2.2 mph - -   Scattered Clouds
3:00 AM 55 °F 52 °F 88% 30.01 in 31 mi NW 2.2 mph - -  
4:00 AM 54 °F 52 °F 92% 30.02 in 31 mi WNW 2.2 mph - -  
5:00 AM 57 °F 52 °F 76% 30.02 in 31 mi NNW 2.2 mph - -  
6:00 AM 58 °F 52 °F 75% 30.03 in 31 mi Calm Calm - -  
7:00 AM 62 °F 54 °F 69% 30.03 in 31 mi WSW 2.2 mph - -   Scattered Clouds
8:00 AM 64 °F 54 °F 61% 30.04 in 31 mi 4.5 mph - -  
9:00 AM 66 °F 53 °F 54% 30.05 in 31 mi WNW 2.2 mph - -  
10:00 AM 70 °F 52 °F 43% 30.04 in 28 mi SW 6.7 mph - -  
11:00 AM 70 °F 52 °F 41% 30.05 in 31 mi WSW 8.9 mph - -  
12:00 PM 74 °F 52 °F 36% 30.04 in 31 mi West 4.5 mph - -  
1:00 PM 74 °F 52 °F 36% 30.04 in 25 mi West 6.7 mph - -  
2:00 PM 76 °F 52 °F 32% 30.03 in 28 mi WSW 6.7 mph - -  
3:00 PM 78 °F 49 °F 26% 30.03 in 25 mi West 6.7 mph - -  
4:00 PM 76 °F 55 °F 38% 30.02 in 31 mi South 6.7 mph - -   Scattered Clouds
6:00 PM 76 °F 52 °F 33% 30.01 in 31 mi West 6.7 mph - -   Mostly Cloudy
7:00 PM 75 °F 52 °F 34% 30.01 in 31 mi West 4.5 mph - -   Overcast
8:00 PM 74 °F 53 °F 36% 30.01 in 31 mi WSW 6.7 mph - -  
9:00 PM 70 °F 55 °F 48% 30.01 in 31 mi SW 6.7 mph - -  
10:00 PM 68 °F 54 °F 51% 30.03 in 31 mi WSW 6.7 mph - -